CW1906 Weather Reports


Display with metric or nautical units.
time (UTC)temp
F
wind
direction
speed
MPH
gust
MPH
rain 1hr
in
rain 24hr
in
rain mn
in
humidity
%
barometer
mb
20210624054832 72 198 2.0 4.0 0.00 0.00 0.00 64 1016.4
20210624053335 72 150 2.0 4.0 0.00 0.00 0.00 63 1016.5
20210624051823 73 169 2.0 5.0 0.00 0.00 0.00 63 1016.5
20210624050325 73 164 2.0 5.0 0.00 0.00 0.00 62 1016.5
20210624044830 74 193 2.0 6.0 0.00 0.00 0.00 61 1016.7
20210624043334 74 185 3.0 6.0 0.00 0.00 0.00 61 1016.7
20210624041821 74 207 3.0 7.0 0.00 0.00 0.00 60 1016.8
20210624040325 74 193 3.0 7.0 0.00 0.00 0.00 59 1016.5
20210624034834 75 176 5.0 7.0 0.00 0.00 0.00 58 1016.4
20210624033317 75 169 3.0 6.0 0.00 0.00 0.00 59 1016.5
20210624031826 75 169 3.0 9.0 0.00 0.00 0.00 58 1016.7
20210624030328 75 180 3.0 6.0 0.00 0.00 0.00 57 1016.6
20210624024817 75 174 3.0 5.0 0.00 0.00 0.00 57 1016.5
20210624023329 76 160 3.0 6.0 0.00 0.00 0.00 56 1016.3
20210624021818 76 180 2.0 6.0 0.00 0.00 0.00 56 1016.0
20210624020322 76 164 3.0 5.0 0.00 0.00 0.00 54 1015.9
20210624014826 76 176 3.0 5.0 0.00 0.00 0.00 53 1015.9
20210624013334 77 191 2.0 5.0 0.00 0.00 0.00 53 1016.0
20210624011818 77 176 2.0 5.0 0.00 0.00 0.00 53 1016.0
20210624010326 77 156 2.0 4.0 0.00 0.00 0.00 52 1016.0
20210624004829 78 153 2.0 4.0 0.00 0.00 0.00 51 1016.0
20210624003317 79 162 2.0 3.0 0.00 0.00 0.00 50 1016.0
20210624001822 79 181 3.0 5.0 0.00 0.00 0.00 48 1016.0
20210624000330 79 164 3.0 6.0 0.00 0.00 0.00 48 1015.9
20210623234828 80 207 1.0 4.0 0.00 0.00 0.00 48 1015.9
20210623233315 80 143 1.0 4.0 0.00 0.00 0.00 47 1015.9
20210623231818 81 201 3.0 6.0 0.00 0.00 0.00 46 1016.0
20210623230326 81 140 3.0 6.0 0.00 0.00 0.00 45 1016.0
20210623224829 81 169 3.0 7.0 0.00 0.00 0.00 44 1015.9
20210623223317 82 128 3.0 5.0 0.00 0.00 0.00 45 1016.0
20210623221822 81 194 2.0 7.0 0.00 0.00 0.00 44 1016.3
20210623220329 82 147 4.0 7.0 0.00 0.00 0.00 44 1016.2
20210623214833 82 180 4.0 6.0 0.00 0.00 0.00 42 1016.4
20210623213322 82 173 3.0 8.0 0.00 0.00 0.00 42 1016.4
20210623211825 83 167 3.0 7.0 0.00 0.00 0.00 40 1016.5
20210623210332 83 194 3.0 5.0 0.00 0.00 0.00 40 1016.5
20210623204834 83 174 4.0 7.0 0.00 0.00 0.00 40 1016.7
20210623203322 83 161 3.0 5.0 0.00 0.00 0.00 44 1016.9
20210623201827 82 213 2.0 7.0 0.00 0.00 0.00 41 1016.8
20210623200330 82 176 5.0 9.0 0.00 0.00 0.00 41 1016.9
20210623194818 82 194 6.0 9.0 0.00 0.00 0.00 41 1017.0
20210623193321 82 183 4.0 8.0 0.00 0.00 0.00 42 1017.2
20210623191829 81 191 4.0 7.0 0.00 0.00 0.00 42 1017.3
20210623190333 81 198 2.0 7.0 0.00 0.00 0.00 48 1017.5
20210623184822 81 217 4.0 6.0 0.00 0.00 0.00 46 1017.7
20210623183326 81 205 2.0 5.0 0.00 0.00 0.00 46 1017.7
20210623181833 80 185 3.0 5.0 0.00 0.00 0.00 49 1018.0
20210623180335 80 188 3.0 6.0 0.00 0.00 0.00 45 1018.1
20210623174819 80 148 3.0 6.0 0.00 0.00 0.00 47 1018.2
20210623173323 80 105 2.0 4.0 0.00 0.00 0.00 47 1018.3
20210623171831 80 166 2.0 4.0 0.00 0.00 0.00 46 1018.5
20210623170334 80 201 2.0 4.0 0.00 0.00 0.00 50 1018.7
20210623164821 79 171 3.0 7.0 0.00 0.00 0.00 48 1018.8
20210623163324 79 163 1.0 5.0 0.00 0.00 0.00 51 1018.7
20210623161831 78 203 1.0 3.0 0.00 0.00 0.00 51 1018.8
20210623160314 78 179 2.0 5.0 0.00 0.00 0.00 51 1018.9
20210623154823 77 221 3.0 5.0 0.00 0.00 0.00 51 1018.9
20210623153325 76 159 1.0 5.0 0.00 0.00 0.00 53 1018.7
20210623151814 75 158 3.0 5.0 0.00 0.00 0.00 54 1018.7
20210623150319 74 153 3.0 5.0 0.00 0.00 0.00 55 1018.6
20210623144819 72 156 3.0 6.0 0.00 0.00 0.00 61 1018.7
20210623143322 71 177 3.0 6.0 0.00 0.00 0.00 62 1018.9
20210623141827 70 162 2.0 4.0 0.00 0.00 0.00 65 1018.9
20210623140330 68 200 2.0 4.0 0.00 0.00 0.00 68 1019.0
20210623134819 67 205 1.0 4.0 0.00 0.00 0.00 71 1018.9
20210623133323 66 189 1.0 4.0 0.00 0.00 0.00 71 1018.8
20210623131826 65 144 1.0 2.0 0.00 0.00 0.00 72 1018.9
20210623130333 64 158 0.0 1.0 0.00 0.00 0.00 74 1018.8
20210623124819 64 187 1.0 2.0 0.00 0.00 0.00 74 1018.7
20210623123326 63 140 1.0 2.0 0.00 0.00 0.00 76 1018.6
20210623121831 62 174 1.0 2.0 0.00 0.00 0.00 79 1018.3
20210623120316 61 160 1.0 2.0 0.00 0.00 0.00 80 1018.3
20210623114819 60 163 0.0 1.0 0.00 0.00 0.00 81 1018.3
20210623113326 60 163 0.0 1.0 0.00 0.00 0.00 81 1018.3
20210623111831 60 163 1.0 1.0 0.00 0.00 0.00 81 1018.2
20210623110319 60 163 0.0 1.0 0.00 0.00 0.00 81 1018.1
20210623104822 60 165 1.0 2.0 0.00 0.00 0.00 80 1018.0
20210623103328 60 176 1.0 2.0 0.00 0.00 0.00 79 1017.9
20210623101833 60 172 1.0 2.0 0.00 0.00 0.00 79 1017.7
20210623100321 61 172 1.0 2.0 0.00 0.00 0.00 78 1017.5
20210623094825 61 176 2.0 3.0 0.00 0.00 0.00 77 1017.4
20210623093331 61 194 2.0 3.0 0.00 0.00 0.00 75 1017.4
20210623091816 61 179 3.0 4.0 0.00 0.00 0.00 75 1017.3
20210623090324 61 184 2.0 3.0 0.00 0.00 0.00 75 1017.2
20210623084828 61 180 2.0 3.0 0.00 0.00 0.00 74 1017.0
20210623083316 62 185 2.0 2.0 0.00 0.00 0.00 73 1017.0
20210623081821 62 179 1.0 3.0 0.00 0.00 0.00 72 1016.9
20210623080329 63 188 2.0 4.0 0.00 0.00 0.00 70 1016.8
20210623074833 63 175 2.0 3.0 0.00 0.00 0.00 69 1016.8
20210623073321 63 183 2.0 4.0 0.00 0.00 0.00 69 1016.9
20210623071825 64 202 2.0 4.0 0.00 0.00 0.00 68 1016.9
20210623070333 63 183 2.0 3.0 0.00 0.00 0.00 68 1017.1
20210623064818 63 184 1.0 2.0 0.00 0.00 0.00 69 1017.2
20210623063326 63 174 2.0 2.0 0.00 0.00 0.00 69 1017.4
20210623061831 63 174 1.0 2.0 0.00 0.00 0.00 69 1017.5
20210623060319 64 159 1.0 2.0 0.00 0.00 0.00 67 1017.3